LAOSAT 1 (41034 NORAD) Tracking and Keplerian Element Data

This shows tracking and keplerian element data for the satellite.

Feedback or suggestion? Click here.




ElementValue
Catalog41034
NameLAOSAT 1
Epoch Orbit3706
Epoch Day354.00044937
Epoch Year2025
RAAN192.2228
Inclination0.0504
Eccentricity0.0001557
Argument of Perigee14.8242
Mean Anonmoly10.4753
Mean Motion1.00271283
Decay Rate-3.18E-06
L11 41034U 15067A 25354.00044937 -.00000318 00000+0 00000+0 0 9998
L22 41034 0.0504 192.2228 0001557 14.8242 10.4753 1.00271283 37068



Live tracking and technical data element details for LAOSAT 1 (NORAD 41034). LAOSAT 1 can be tracked NOW for your location showing map with azimuth and elevation plus other details from your city location.







IsCatalogInMostPopularTable: catalog: 41034, numindb: 809
Update: records affected: 1



GetName: 41034 LAOSAT 1

Hit Count: updated at: Mon, 11 May 2026 11:21:10 GMT